Moderate snow at O'Hare drops visibility to 1/2 mile

CHICAGO AREA WEATHER ROUNDUP
NATIONAL WEATHER SERVICE CHICAGO/ROMEOVILLE IL
200 PM CST TUE FEB 05 2013

NOTE: "FAIR" INDICATES FEW OR NO CLOUDS BELOW 12,000 FEET WITH NO
SIGNIFICANT WEATHER AND/OR OBSTRUCTIONS TO VISIBILITY.

* THESE STATIONS ARE NOT UNDER NWS QUALITY CONTROL. THEY ALSO MAY NOT
  REPORT WEATHER SUCH AS PRECIPITATION OR FOG.

ILZ005-006-012>014-019>023-052100-
NORTHEAST ILLINOIS

CITY           SKY/WX    TMP DP  RH WIND       PRES   REMARKS
OHARE          SNOW      30  25  81 W15       29.79R VSB 1/2
MIDWAY         LGT SNOW  30  24  78 W13       29.80S FOG
AURORA         LGT SNOW  30  27  88 W13       29.81R VSB 3/4
LANSING*       LGT SNOW  31  27  84 W9        29.80F
WAUKEGAN       LGT SNOW  26  23  88 VRB3      29.78S VSB 1
DUPAGE AIRPORT LGT SNOW  29  25  85 W13       29.80R VSB 3/4
WHEELING       SNOW      28  25  88 W10       29.82R VSB 1/2
NORTHERLY IS   NOT AVBL
$$

WIZ051-052-058>065-066-070>072-052100-
SOUTHEAST WISCONSIN

CITY           SKY/WX    TMP DP  RH WIND       PRES   REMARKS
MILWAUKEE      CLOUDY    27  20  75 W12       29.78R
KENOSHA*       LGT SNOW  26  21  81 W12       29.78R
RACINE*        CLOUDY    27  21  80 W10       29.79S HAZE
$$

INZ001>003-010>013-019-020-052100-
NORTHWEST INDIANA

CITY           SKY/WX    TMP DP  RH WIND       PRES   REMARKS
GARY           NOT AVBL
VALPARAISO     LGT SNOW  30  27  86 SW12      29.80F
$$

 

Leave a Reply

Fill in your details below or click an icon to log in:

WordPress.com Logo

You are commenting using your WordPress.com account. Log Out / Change )

Twitter picture

You are commenting using your Twitter account. Log Out / Change )

Facebook photo

You are commenting using your Facebook account. Log Out / Change )

Google+ photo

You are commenting using your Google+ account. Log Out / Change )

Connecting to %s